Location: Mauries
(43.6188°N, 0.3322°W)
Time: 12:33:30
(UTC+00:00)

Envisat - Pass Details

Date: 15 March 2026
Orbit: 761 x 762 km, 98.4° (Epoch: 14 April)

Event Time Altitude Azimuth Distance (km) Brightness Sun altitude
Rises 04:24:24 0° 355° (N) 3,234 6.4 -20.4°
Reaches altitude 10° 04:27:56 10° 329° (NNW) 2,303 5.3 -19.8°
Enters shadow 04:29:05 12° 316° (NW) 2,141 5.0 -19.6°
